When you browse on this site, cookies collect data to enhance your experience and personalize the content and advertising you see.
Visit our Privacy Policy to learn more. By continuing to use the site, you agree to this use of cookies and data.
  • In Hungary
  • List of Countries
  • For 7 days
  • Water Temperature
  • Satellite Maps
  • Weather Map
  • News
  • Weather Widgets
  • user-avatar
    Login

    Hourly Weather Pitsunda

    Today, 20 January, Sunday

    Time Temperature Precipitation Wind Pressure Humidity
    00:00 +5°C° 0 mm 3 mps 766 mmHg 62%
    01:00 +5°C° 0.1 mm 4 mps 766 mmHg 64%
    02:00 +5°C° 0.1 mm 4 mps 766 mmHg 66%
    03:00 +5°C° 0.1 mm 4 mps 766 mmHg 67%
    04:00 +5°C° 0.2 mm 4 mps 767 mmHg 70%
    05:00 +5°C° 0.2 mm 5 mps 767 mmHg 72%
    06:00 +5°C° 0.2 mm 5 mps 767 mmHg 74%
    07:00 +5°C° 0.1 mm 5 mps 767 mmHg 73%
    08:00 +5°C° 0.1 mm 5 mps 767 mmHg 72%
    09:00 +5°C° 0.1 mm 5 mps 767 mmHg 72%
    10:00 +6°C° 0.1 mm 5 mps 767 mmHg 70%
    11:00 +7°C° 0.1 mm 5 mps 767 mmHg 69%
    12:00 +7°C° 0.1 mm 4 mps 767 mmHg 68%
    13:00 +7°C° 0.1 mm 4 mps 767 mmHg 69%
    14:00 +7°C° 0.1 mm 4 mps 766 mmHg 69%
    15:00 +8°C° 0.1 mm 3 mps 766 mmHg 70%
    16:00 +7°C° 0 mm 3 mps 766 mmHg 72%
    17:00 +7°C° 0 mm 3 mps 766 mmHg 75%
    18:00 +5°C° 0 mm 4 mps 766 mmHg 77%
    19:00 +5°C° 0 mm 4 mps 766 mmHg 76%
    20:00 +5°C° 0 mm 4 mps 766 mmHg 75%
    21:00 +4°C° 0 mm 4 mps 766 mmHg 74%
    22:00 +4°C° 0 mm 4 mps 766 mmHg 73%
    23:00 +3°C° 0 mm 5 mps 765 mmHg 72%

    Tomorrow, 21 January, Monday

    Time Temperature Precipitation Wind Pressure Humidity
    00:00 +3°C° 0 mm 5 mps 765 mmHg 71%
    01:00 +3°C° 0 mm 5 mps 765 mmHg 70%
    02:00 +5°C° 0 mm 5 mps 765 mmHg 69%
    03:00 +5°C° 0 mm 5 mps 765 mmHg 68%
    04:00 +5°C° 0 mm 5 mps 764 mmHg 68%
    05:00 +5°C° 0 mm 5 mps 764 mmHg 67%
    06:00 +5°C° 0 mm 5 mps 763 mmHg 67%
    07:00 +5°C° 0 mm 5 mps 763 mmHg 65%
    08:00 +6°C° 0 mm 5 mps 763 mmHg 64%
    09:00 +5°C° 0 mm 6 mps 763 mmHg 63%
    10:00 +7°C° 0 mm 5 mps 762 mmHg 60%
    11:00 +9°C° 0 mm 5 mps 762 mmHg 57%
    12:00 +10°C° 0 mm 5 mps 762 mmHg 53%
    13:00 +10°C° 0 mm 5 mps 761 mmHg 54%
    14:00 +10°C° 0 mm 5 mps 761 mmHg 55%
    15:00 +10°C° 0 mm 5 mps 761 mmHg 56%
    16:00 +9°C° 0 mm 5 mps 761 mmHg 57%
    17:00 +7°C° 0 mm 5 mps 761 mmHg 59%
    18:00 +6°C° 0 mm 4 mps 762 mmHg 61%
    19:00 +6°C° 0 mm 5 mps 762 mmHg 60%
    20:00 +6°C° 0 mm 5 mps 762 mmHg 59%
    21:00 +6°C° 0 mm 5 mps 762 mmHg 58%
    22:00 +6°C° 0 mm 5 mps 762 mmHg 57%
    23:00 +6°C° 0 mm 5 mps 762 mmHg 56%

    Day after tomorrow, 22 January, Tuesday

    Time Temperature Precipitation Wind Pressure Humidity
    00:00 +6°C° 0 mm 5 mps 762 mmHg 55%
    01:00 +6°C° 0.1 mm 4 mps 762 mmHg 56%
    02:00 +6°C° 0.1 mm 4 mps 762 mmHg 58%
    03:00 +7°C° 0.1 mm 3 mps 763 mmHg 59%
    04:00 +7°C° 0.8 mm 3 mps 763 mmHg 65%
    05:00 +5°C° 0.8 mm 3 mps 763 mmHg 70%
    06:00 +5°C° 0.8 mm 4 mps 763 mmHg 76%
    07:00 +5°C° 0.6 mm 4 mps 763 mmHg 78%
    08:00 +5°C° 0.6 mm 4 mps 764 mmHg 80%
    09:00 +5°C° 0.6 mm 5 mps 764 mmHg 82%
    10:00 +5°C° 0.1 mm 5 mps 764 mmHg 81%
    11:00 +6°C° 0.1 mm 4 mps 764 mmHg 81%
    12:00 +6°C° 0.1 mm 4 mps 765 mmHg 80%
    13:00 +6°C° 0 mm 4 mps 765 mmHg 80%
    14:00 +7°C° 0 mm 3 mps 765 mmHg 81%
    15:00 +7°C° 0 mm 3 mps 764 mmHg 81%
    16:00 +5°C° 0 mm 3 mps 765 mmHg 84%
    17:00 +5°C° 0 mm 2 mps 765 mmHg 88%
    18:00 +4°C° 0 mm 2 mps 765 mmHg 91%
    19:00 +4°C° 0 mm 2 mps 765 mmHg 89%
    20:00 +4°C° 0 mm 2 mps 765 mmHg 87%
    21:00 +3°C° 0 mm 3 mps 765 mmHg 85%
    22:00 +3°C° 0 mm 3 mps 765 mmHg 82%
    23:00 +3°C° 0 mm 4 mps 765 mmHg 80%

    23 January, Wednesday

    Time Temperature Precipitation Wind Pressure Humidity
    00:00 +3°C° 0 mm 4 mps 765 mmHg 78%
    01:00 +3°C° 0 mm 4 mps 765 mmHg 75%
    02:00 +4°C° 0 mm 4 mps 764 mmHg 73%
    03:00 +4°C° 0 mm 4 mps 764 mmHg 71%
    04:00 +4°C° 0 mm 4 mps 764 mmHg 71%
    05:00 +4°C° 0 mm 4 mps 763 mmHg 70%
    06:00 +4°C° 0 mm 4 mps 763 mmHg 70%
    07:00 +5°C° 0 mm 4 mps 763 mmHg 70%
    08:00 +5°C° 0 mm 4 mps 763 mmHg 70%
    09:00 +5°C° 0 mm 4 mps 763 mmHg 71%
    10:00 +6°C° 0 mm 4 mps 763 mmHg 70%
    11:00 +7°C° 0 mm 4 mps 763 mmHg 69%
    12:00 +8°C° 0 mm 4 mps 763 mmHg 67%
    13:00 +8°C° 0 mm 4 mps 763 mmHg 67%
    14:00 +8°C° 0 mm 4 mps 762 mmHg 67%
    15:00 +10°C° 0 mm 4 mps 762 mmHg 67%
    16:00 +8°C° 0 mm 5 mps 762 mmHg 68%
    17:00 +7°C° 0 mm 5 mps 762 mmHg 70%
    18:00 +6°C° 0 mm 5 mps 762 mmHg 71%
    19:00 +4°C° 0 mm 6 mps 763 mmHg 69%
    20:00 +4°C° 0 mm 6 mps 763 mmHg 67%
    21:00 +4°C° 0 mm 6 mps 763 mmHg 65%
    22:00 +4°C° 0 mm 6 mps 763 mmHg 64%
    23:00 +4°C° 0 mm 6 mps 763 mmHg 64%

    24 January, Thursday

    Time Temperature Precipitation Wind Pressure Humidity
    00:00 +4°C° 0 mm 7 mps 763 mmHg 64%
    01:00 +4°C° 0 mm 7 mps 763 mmHg 63%
    02:00 +4°C° 0 mm 7 mps 763 mmHg 63%
    03:00 +4°C° 0 mm 7 mps 762 mmHg 62%
    04:00 +4°C° 0 mm 6 mps 762 mmHg 62%
    05:00 +4°C° 0 mm 6 mps 762 mmHg 62%
    06:00 +4°C° 0 mm 6 mps 762 mmHg 61%
    07:00 +5°C° 0 mm 6 mps 762 mmHg 61%
    08:00 +5°C° 0 mm 6 mps 762 mmHg 60%
    09:00 +7°C° 0 mm 6 mps 762 mmHg 60%
    10:00 +8°C° 0 mm 6 mps 761 mmHg 58%
    11:00 +10°C° 0 mm 5 mps 761 mmHg 57%
    12:00 +13°C° 0 mm 5 mps 760 mmHg 55%
    13:00 +13°C° 0 mm 5 mps 760 mmHg 57%
    14:00 +13°C° 0 mm 5 mps 759 mmHg 59%
    15:00 +13°C° 0 mm 5 mps 759 mmHg 61%
    16:00 +12°C° 0 mm 5 mps 759 mmHg 61%
    17:00 +9°C° 0 mm 6 mps 759 mmHg 61%
    18:00 +8°C° 0 mm 6 mps 759 mmHg 60%
    19:00 +8°C° 0 mm 6 mps 759 mmHg 58%
    20:00 +8°C° 0 mm 7 mps 759 mmHg 56%
    21:00 +8°C° 0 mm 7 mps 758 mmHg 54%
    22:00 +8°C° 0 mm 7 mps 758 mmHg 54%
    23:00 +8°C° 0 mm 7 mps 758 mmHg 53%

    25 January, Friday

    Time Temperature Precipitation Wind Pressure Humidity
    00:00 +8°C° 0 mm 7 mps 758 mmHg 53%
    01:00 +8°C° 0 mm 7 mps 758 mmHg 52%
    02:00 +8°C° 0 mm 7 mps 758 mmHg 51%
    03:00 +8°C° 0 mm 7 mps 758 mmHg 51%
    04:00 +8°C° 0 mm 7 mps 758 mmHg 51%
    05:00 +7°C° 0 mm 8 mps 758 mmHg 51%
    06:00 +7°C° 0 mm 8 mps 758 mmHg 51%
    07:00 +7°C° 0 mm 8 mps 758 mmHg 52%
    08:00 +9°C° 0 mm 8 mps 758 mmHg 53%
    09:00 +9°C° 0 mm 8 mps 758 mmHg 54%
    10:00 +10°C° 0 mm 8 mps 758 mmHg 56%
    11:00 +11°C° 0 mm 7 mps 758 mmHg 57%
    12:00 +12°C° 0 mm 7 mps 758 mmHg 58%
    13:00 +12°C° 0.1 mm 7 mps 757 mmHg 61%
    14:00 +13°C° 0.1 mm 6 mps 757 mmHg 65%
    15:00 +13°C° 0.1 mm 5 mps 757 mmHg 68%
    16:00 +12°C° 0.4 mm 5 mps 757 mmHg 70%
    17:00 +10°C° 0.4 mm 5 mps 757 mmHg 72%
    18:00 +9°C° 0.4 mm 5 mps 757 mmHg 75%
    19:00 +9°C° 0.4 mm 6 mps 757 mmHg 75%
    20:00 +9°C° 0.4 mm 6 mps 757 mmHg 76%
    21:00 +9°C° 0.4 mm 6 mps 757 mmHg 76%
    22:00 +9°C° 0.2 mm 6 mps 757 mmHg 75%
    23:00 +9°C° 0.2 mm 6 mps 757 mmHg 74%
    Show more